Location: Auckland
(36.8670°S, 174.7670°E)
Time: 11:57:01
(UTC+12:00)

ISS - Visible Passes

Search period start: 24 September 2020 00:00
Search period end: 04 October 2020 01:00
Orbit: 419 x 420 km, 51.6° (Epoch: 24 September)

Date Brightness Start Highest point End Pass type
(mag) Time Alt. Az. Time Alt. Az. Time Alt. Az.
24 Sep -1.9 04:28:47 22° NNE 04:29:57 27° NE 04:32:53 10° ESE visible
25 Sep -0.8 03:43:43 14° ENE 03:43:43 14° ENE 03:44:47 10° E visible
25 Sep -3.3 05:16:43 16° WNW 05:19:14 49° SW 05:22:35 10° SE visible
26 Sep -3.9 04:31:30 72° WNW 04:31:49 87° SW 04:35:16 10° SE visible
27 Sep -1.4 04:46:10 25° ESE 04:46:10 25° ESE 04:47:48 10° ESE visible
27 Sep -1.9 06:19:09 12° WSW 06:21:28 20° SSW 06:24:08 10° SSE visible
28 Sep -2.6 05:33:43 29° SW 05:33:55 30° SSW 05:37:00 10° SSE visible
29 Sep -1.5 04:48:13 23° SSE 04:48:13 23° SSE 04:49:46 10° SE visible
29 Sep -1.2 06:22:46 10° SW 06:23:55 11° SSW 06:25:04 10° S visible
30 Sep -1.5 05:35:35 14° SW 05:36:13 15° SSW 05:38:16 10° SSE visible
01 Oct -1.2 04:49:57 16° S 04:49:57 16° S 04:51:13 10° SSE visible
03 Oct -0.8 04:51:29 11° S 04:51:29 11° S 04:52:02 10° S visible
